Flag for U.S.A. Weather past 2 weeks in Fresno, California, U.S.A.

Now
62 °F

Scattered clouds.


Feels Like: 62 °F
Forecast: 44 / 60 °F
Wind: 5 mph from Northwest

Location: Fresno Air Terminal

Current Time: Jan 30, 2015 at 4:00:39 PM

Latest Report: Jan 30, 2015 at 2:53 PM


Visibility: 4 mi

Pressure: 29.89 "Hg

Humidity: 62%

Dew point: 49 °F

Location of FresnoLocation

Historic Weather in Fresno — Graph

°F

Fresno temperature yesterday

Maximum temperature yesterday: 63 °F (at 2:53 PM)
Minimum temperature yesterday: 47 °F (at 3:53 AM)
Average temperature yesterday: 53 °F

Past Weeks' High & Low Weather Summary

 TemperatureHumidityPressure
High63 °F (Jan 27, 3:53 PM)100% (Jan 15, 7:53 PM)30.41 "Hg (Jan 15, 7:53 PM)
Low37 °F (Jan 26, 3:53 AM)56% (Jan 26, 3:53 PM)29.89 "Hg (Jan 30, 2:53 PM)
Average48 °F89%30.21 "Hg
* Reported Jan 15 2:53 PM — Jan 30 2:53 PM, Fresno, Weather by CustomWeather, © 2014

Note: Actual official high and low records may vary slightly from our data, if they occured in-between our weather recording intervals... More about our weather records

Advertising

Fresno weather history for previous 24 hours

 ConditionsComfort  
Time TempWeatherWind HumidityBarometerVisibility
2:53 PM
Jan 30
62 °FScattered clouds.5 mph62%29.89 "Hg4 mi
2:03 PM62 °FScattered clouds.3 mph62%29.91 "Hg4 mi
12:53 PM61 °FPartly sunny.6 mph67%29.93 "Hg3 mi
11:53 AM60 °FPartly sunny.No wind72%29.97 "Hg3 mi
10:53 AM58 °FOvercast.No wind78%30.00 "Hg2 mi
9:53 AM53 °FFog.5 mph93%30.01 "Hg1 mi
8:53 AM47 °FFog.No wind100%30.02 "Hg0 mi
7:53 AM45 °FFog.3 mph97%30.01 "Hg0 mi
6:53 AM45 °FFog.No wind97%30.01 "Hg0 mi
5:53 AM46 °FFog.No wind100%30.00 "Hg0 mi
4:53 AM46 °FFog.No wind100%30.01 "Hg0 mi
3:53 AM46 °FFog.No wind100%30.02 "Hg0 mi
2:56 AM47 °FFog.No wind97%30.04 "Hg0 mi
1:53 AM48 °FFog.3 mph96%30.05 "Hg1 mi
12:53 AM49 °FFog.3 mph97%30.05 "Hg1 mi
11:53 PM
Jan 29
50 °FFog.3 mph93%30.07 "Hg2 mi
10:53 PM50 °FFog.No wind96%30.08 "Hg3 mi
9:53 PM52 °FFog.3 mph89%30.08 "Hg3 mi
8:53 PM54 °FFog.3 mph86%30.08 "Hg4 mi
7:53 PM56 °FFog.5 mph87%30.07 "Hg4 mi
6:53 PM57 °FPassing clouds.3 mph81%30.06 "Hg5 mi
5:53 PM59 °FPassing clouds.6 mph75%30.06 "Hg5 mi
4:53 PM62 °FPartly sunny.7 mph67%30.06 "Hg4 mi
Weather by CustomWeather, © 2014

See weather overviewHow to use our weather pages